contact:dominique.lefevre@mio.osupytheas.fr, maurice.libes@osupytheas.fr, didier.mallarino@osupytheas.fr
Project:EMSO http://www.emso-fr.org/EMSO-France
Depth: 2436.0 m
Title:EMSO Ligure Ouest : Data MII capteur MICROCAT
DateTime_Computer,Latitude,Longitude,Temperature,Conductivity,Pressure,DateTime_Instrument
DateTime_Computer,Latitude,Longitude,degC,S m-1,dbar,DateTime_Instrument
2022-09-24T00:02:23Z,42.805,6.029,13.3094,4.60100,2470.53,2022-9-24T02:04:16Z
2022-09-24T00:05:26Z,42.805,6.029,13.3082,4.60114,2470.544,2022-9-24T02:07:19Z
2022-09-24T00:08:29Z,42.805,6.029,13.3075,4.60123,2470.567,2022-9-24T02:10:23Z
2022-09-24T00:11:32Z,42.805,6.029,13.3069,4.60106,2470.544,2022-9-24T02:13:26Z
2022-09-24T00:14:36Z,42.805,6.029,13.3067,4.60097,2470.544,2022-9-24T02:16:29Z
2022-09-24T00:17:39Z,42.805,6.029,13.3062,4.60093,2470.544,2022-9-24T02:19:32Z
2022-09-24T00:20:42Z,42.805,6.029,13.3067,4.60107,2470.544,2022-9-24T02:22:35Z
2022-09-24T00:23:45Z,42.805,6.029,13.3067,4.60092,2470.52,2022-9-24T02:25:38Z
2022-09-24T00:26:48Z,42.805,6.029,13.3078,4.60129,2470.567,2022-9-24T02:28:41Z
2022-09-24T00:29:51Z,42.805,6.029,13.3056,4.60107,2470.507,2022-9-24T02:31:44Z
2022-09-24T00:32:54Z,42.805,6.029,13.3055,4.60093,2470.544,2022-9-24T02:34:48Z
2022-09-24T00:35:57Z,42.805,6.029,13.3046,4.60111,2470.52,2022-9-24T02:37:51Z
2022-09-24T00:39:01Z,42.805,6.029,13.3041,4.60097,2470.544,2022-9-24T02:40:54Z
2022-09-24T00:42:04Z,42.805,6.029,13.3046,4.60128,2470.553,2022-9-24T02:43:57Z
2022-09-24T00:45:07Z,42.805,6.029,13.3039,4.60097,2470.483,2022-9-24T02:47:00Z
2022-09-24T00:48:10Z,42.805,6.029,13.3083,4.60092,2470.53,2022-9-24T02:50:03Z
2022-09-24T00:51:13Z,42.805,6.029,13.3062,4.60084,2470.53,2022-9-24T02:53:06Z
2022-09-24T00:54:16Z,42.805,6.029,13.3056,4.60074,2470.52,2022-9-24T02:56:09Z
2022-09-24T00:57:19Z,42.805,6.029,13.3036,4.60107,2470.53,2022-9-24T02:59:13Z
2022-09-24T01:00:22Z,42.805,6.029,13.3045,4.60095,2470.52,2022-9-24T03:02:16Z
2022-09-24T01:03:26Z,42.805,6.029,13.3043,4.60102,2470.53,2022-9-24T03:05:19Z
2022-09-24T01:06:29Z,42.805,6.029,13.3098,4.60089,2470.567,2022-9-24T03:08:22Z
2022-09-24T01:09:32Z,42.805,6.029,13.3047,4.60112,2470.544,2022-9-24T03:11:25Z
2022-09-24T01:12:35Z,42.805,6.029,13.3046,4.60092,2470.507,2022-9-24T03:14:28Z
2022-09-24T01:15:38Z,42.805,6.029,13.3067,4.60078,2470.544,2022-9-24T03:17:31Z
2022-09-24T01:18:41Z,42.805,6.029,13.3082,4.60113,2470.52,2022-9-24T03:20:34Z
2022-09-24T01:21:44Z,42.805,6.029,13.3082,4.60099,2470.553,2022-9-24T03:23:37Z
2022-09-24T01:24:47Z,42.805,6.029,13.3094,4.60088,2470.544,2022-9-24T03:26:41Z
2022-09-24T01:27:51Z,42.805,6.029,13.3060,4.60077,2470.53,2022-9-24T03:29:44Z
2022-09-24T01:30:54Z,42.805,6.029,13.3073,4.60098,2470.53,2022-9-24T03:32:47Z
2022-09-24T01:33:57Z,42.805,6.029,13.3080,4.60094,2470.53,2022-9-24T03:35:50Z
2022-09-24T01:37:00Z,42.805,6.029,13.3051,4.60101,2470.544,2022-9-24T03:38:53Z
2022-09-24T01:40:03Z,42.805,6.029,13.3070,4.60087,2470.553,2022-9-24T03:41:56Z
2022-09-24T01:43:06Z,42.805,6.029,13.3073,4.60085,2470.567,2022-9-24T03:44:59Z
2022-09-24T01:46:09Z,42.805,6.029,13.3054,4.60091,2470.553,2022-9-24T03:48:02Z
2022-09-24T01:49:12Z,42.805,6.029,13.3066,4.60090,2470.53,2022-9-24T03:51:06Z
2022-09-24T01:52:16Z,42.805,6.029,13.3058,4.60084,2470.544,2022-9-24T03:54:09Z
2022-09-24T01:55:19Z,42.805,6.029,13.3054,4.60087,2470.544,2022-9-24T03:57:12Z
2022-09-24T01:58:22Z,42.805,6.029,13.3043,4.60086,2470.507,2022-9-24T04:00:15Z
2022-09-24T02:01:25Z,42.805,6.029,13.3055,4.60091,2470.567,2022-9-24T04:03:18Z
2022-09-24T02:04:28Z,42.805,6.029,13.3047,4.60090,2470.544,2022-9-24T04:06:21Z
2022-09-24T02:07:31Z,42.805,6.029,13.3055,4.60081,2470.53,2022-9-24T04:09:24Z
2022-09-24T02:10:34Z,42.805,6.029,13.3051,4.60081,2470.567,2022-9-24T04:12:27Z
2022-09-24T02:13:37Z,42.805,6.029,13.3061,4.60087,2470.567,2022-9-24T04:15:31Z
2022-09-24T02:16:40Z,42.805,6.029,13.3056,4.60092,2470.544,2022-9-24T04:18:34Z
2022-09-24T02:19:44Z,42.805,6.029,13.3051,4.60097,2470.577,2022-9-24T04:21:37Z
2022-09-24T02:22:47Z,42.805,6.029,13.3051,4.60087,2470.53,2022-9-24T04:24:40Z
2022-09-24T02:25:50Z,42.805,6.029,13.3046,4.60081,2470.544,2022-9-24T04:27:43Z
2022-09-24T02:28:53Z,42.805,6.029,13.3058,4.60090,2470.544,2022-9-24T04:30:46Z
2022-09-24T02:31:56Z,42.805,6.029,13.3056,4.60079,2470.591,2022-9-24T04:33:49Z
2022-09-24T02:34:59Z,42.805,6.029,13.3051,4.60087,2470.544,2022-9-24T04:36:52Z
2022-09-24T02:38:02Z,42.805,6.029,13.3048,4.60087,2470.553,2022-9-24T04:39:56Z
2022-09-24T02:41:05Z,42.805,6.029,13.3049,4.60084,2470.53,2022-9-24T04:42:59Z
2022-09-24T02:44:09Z,42.805,6.029,13.3048,4.60092,2470.567,2022-9-24T04:46:02Z
2022-09-24T02:47:12Z,42.805,6.029,13.3077,4.60078,2470.591,2022-9-24T04:49:05Z
2022-09-24T02:50:15Z,42.805,6.029,13.3047,4.60079,2470.567,2022-9-24T04:52:08Z
2022-09-24T02:53:18Z,42.805,6.029,13.3062,4.60079,2470.553,2022-9-24T04:55:11Z
2022-09-24T02:56:21Z,42.805,6.029,13.3048,4.60081,2470.577,2022-9-24T04:58:14Z
2022-09-24T02:59:24Z,42.805,6.029,13.3050,4.60084,2470.553,2022-9-24T05:01:17Z
2022-09-24T03:02:27Z,42.805,6.029,13.3067,4.60086,2470.553,2022-9-24T05:04:21Z
2022-09-24T03:05:30Z,42.805,6.029,13.3051,4.60081,2470.6,2022-9-24T05:07:24Z
2022-09-24T03:08:34Z,42.805,6.029,13.3058,4.60083,2470.591,2022-9-24T05:10:27Z
2022-09-24T03:11:37Z,42.805,6.029,13.3051,4.60075,2470.567,2022-9-24T05:13:30Z
2022-09-24T03:14:40Z,42.805,6.029,13.3063,4.60088,2470.591,2022-9-24T05:16:33Z
2022-09-24T03:17:43Z,42.805,6.029,13.3061,4.60093,2470.591,2022-9-24T05:19:36Z
2022-09-24T03:20:46Z,42.805,6.029,13.3056,4.60088,2470.591,2022-9-24T05:22:39Z
2022-09-24T03:23:49Z,42.805,6.029,13.3064,4.60079,2470.591,2022-9-24T05:25:42Z
2022-09-24T03:26:52Z,42.805,6.029,13.3054,4.60092,2470.553,2022-9-24T05:28:45Z
2022-09-24T03:29:55Z,42.805,6.029,13.3058,4.60108,2470.567,2022-9-24T05:31:49Z
2022-09-24T03:32:59Z,42.805,6.029,13.3051,4.60081,2470.591,2022-9-24T05:34:52Z
2022-09-24T03:36:02Z,42.805,6.029,13.3064,4.60084,2470.553,2022-9-24T05:37:55Z
2022-09-24T03:39:05Z,42.805,6.029,13.3055,4.60089,2470.577,2022-9-24T05:40:58Z
2022-09-24T03:42:08Z,42.805,6.029,13.3072,4.60075,2470.591,2022-9-24T05:44:01Z
2022-09-24T03:45:11Z,42.805,6.029,13.3014,4.60086,2470.624,2022-9-24T05:47:04Z
2022-09-24T03:48:14Z,42.805,6.029,13.3016,4.60082,2470.614,2022-9-24T05:50:07Z
2022-09-24T03:51:17Z,42.805,6.029,13.3053,4.60079,2470.6,2022-9-24T05:53:10Z
2022-09-24T03:54:20Z,42.805,6.029,13.3016,4.60090,2470.6,2022-9-24T05:56:14Z
2022-09-24T03:57:23Z,42.805,6.029,13.3013,4.60080,2470.6,2022-9-24T05:59:17Z
2022-09-24T04:00:27Z,42.805,6.029,13.3005,4.60072,2470.6,2022-9-24T06:02:20Z
2022-09-24T04:03:30Z,42.805,6.029,13.3048,4.60086,2470.6,2022-9-24T06:05:23Z
2022-09-24T04:06:33Z,42.805,6.029,13.3009,4.60101,2470.614,2022-9-24T06:08:26Z
2022-09-24T04:09:36Z,42.805,6.029,13.3015,4.60097,2470.6,2022-9-24T06:11:29Z
2022-09-24T04:12:39Z,42.805,6.029,13.3014,4.60079,2470.6,2022-9-24T06:14:32Z
2022-09-24T04:15:42Z,42.805,6.029,13.3022,4.60080,2470.637,2022-9-24T06:17:35Z
2022-09-24T04:18:45Z,42.805,6.029,13.3008,4.60095,2470.614,2022-9-24T06:20:39Z
2022-09-24T04:21:48Z,42.805,6.029,13.3021,4.60073,2470.624,2022-9-24T06:23:42Z
2022-09-24T04:24:52Z,42.805,6.029,13.3010,4.60096,2470.6,2022-9-24T06:26:45Z
2022-09-24T04:27:55Z,42.805,6.029,13.3012,4.60071,2470.614,2022-9-24T06:29:48Z
2022-09-24T04:30:58Z,42.805,6.029,13.3010,4.60066,2470.614,2022-9-24T06:32:51Z
2022-09-24T04:34:01Z,42.805,6.029,13.3010,4.60068,2470.661,2022-9-24T06:35:54Z
2022-09-24T04:37:04Z,42.805,6.029,13.3009,4.60069,2470.624,2022-9-24T06:38:57Z
2022-09-24T04:40:07Z,42.805,6.029,13.3009,4.60071,2470.614,2022-9-24T06:42:00Z
2022-09-24T04:43:10Z,42.805,6.029,13.3012,4.60074,2470.661,2022-9-24T06:45:04Z
2022-09-24T04:46:13Z,42.805,6.029,13.3011,4.60082,2470.624,2022-9-24T06:48:07Z
2022-09-24T04:49:17Z,42.805,6.029,13.3011,4.60067,2470.614,2022-9-24T06:51:10Z
2022-09-24T04:52:20Z,42.805,6.029,13.3009,4.60069,2470.637,2022-9-24T06:54:13Z
2022-09-24T04:55:23Z,42.805,6.029,13.3009,4.60072,2470.637,2022-9-24T06:57:16Z
2022-09-24T04:58:26Z,42.805,6.029,13.3009,4.60081,2470.661,2022-9-24T07:00:19Z
2022-09-24T05:01:29Z,42.805,6.029,13.3009,4.60074,2470.614,2022-9-24T07:03:22Z
2022-09-24T05:04:32Z,42.805,6.029,13.3043,4.60069,2470.684,2022-9-24T07:06:25Z
2022-09-24T05:07:35Z,42.805,6.029,13.3062,4.60079,2470.646,2022-9-24T07:09:28Z
2022-09-24T05:10:38Z,42.805,6.029,13.3023,4.60076,2470.67,2022-9-24T07:12:32Z
2022-09-24T05:13:42Z,42.805,6.029,13.3017,4.60080,2470.646,2022-9-24T07:15:35Z
2022-09-24T05:16:45Z,42.805,6.029,13.3025,4.60082,2470.67,2022-9-24T07:18:38Z
2022-09-24T05:19:48Z,42.805,6.029,13.3014,4.60097,2470.646,2022-9-24T07:21:41Z
2022-09-24T05:22:51Z,42.805,6.029,13.3009,4.60081,2470.661,2022-9-24T07:24:44Z
2022-09-24T05:25:54Z,42.805,6.029,13.3009,4.60075,2470.67,2022-9-24T07:27:47Z
2022-09-24T05:28:57Z,42.805,6.029,13.3008,4.60072,2470.67,2022-9-24T07:30:50Z
2022-09-24T05:32:00Z,42.805,6.029,13.3008,4.60074,2470.67,2022-9-24T07:33:53Z
2022-09-24T05:35:03Z,42.805,6.029,13.3007,4.60068,2470.684,2022-9-24T07:36:57Z
2022-09-24T05:38:06Z,42.805,6.029,13.3015,4.60067,2470.679,2022-9-24T07:40:00Z
2022-09-24T05:41:10Z,42.805,6.029,13.3010,4.60067,2470.646,2022-9-24T07:43:03Z
2022-09-24T05:44:13Z,42.805,6.029,13.3010,4.60064,2470.67,2022-9-24T07:46:06Z
2022-09-24T05:47:16Z,42.805,6.029,13.3011,4.60072,2470.67,2022-9-24T07:49:09Z
2022-09-24T05:50:19Z,42.805,6.029,13.3011,4.60074,2470.67,2022-9-24T07:52:12Z
2022-09-24T05:53:22Z,42.805,6.029,13.3008,4.60064,2470.646,2022-9-24T07:55:15Z
2022-09-24T05:56:25Z,42.805,6.029,13.3013,4.60073,2470.61,2022-9-24T07:58:18Z
2022-09-24T05:59:28Z,42.805,6.029,13.3011,4.60075,2470.707,2022-9-24T08:01:22Z
2022-09-24T06:02:31Z,42.805,6.029,13.3004,4.60084,2470.646,2022-9-24T08:04:25Z
2022-09-24T06:05:35Z,42.805,6.029,13.3009,4.60074,2470.684,2022-9-24T08:07:28Z
2022-09-24T06:08:38Z,42.805,6.029,13.3007,4.60072,2470.684,2022-9-24T08:10:31Z
2022-09-24T06:11:41Z,42.805,6.029,13.3033,4.60074,2470.646,2022-9-24T08:13:34Z
2022-09-24T06:14:44Z,42.805,6.029,13.3010,4.60078,2470.684,2022-9-24T08:16:37Z
2022-09-24T06:17:47Z,42.805,6.029,13.3006,4.60072,2470.67,2022-9-24T08:19:40Z
2022-09-24T06:20:50Z,42.805,6.029,13.3006,4.60075,2470.67,2022-9-24T08:22:43Z
2022-09-24T06:23:53Z,42.805,6.029,13.3082,4.60082,2470.684,2022-9-24T08:25:47Z
2022-09-24T06:26:56Z,42.805,6.029,13.3011,4.60081,2470.67,2022-9-24T08:28:50Z
2022-09-24T06:30:00Z,42.805,6.029,13.3006,4.60079,2470.656,2022-9-24T08:31:53Z
2022-09-24T06:33:03Z,42.805,6.029,13.3092,4.60079,2470.646,2022-9-24T08:34:56Z
2022-09-24T06:36:06Z,42.805,6.029,13.3061,4.60087,2470.684,2022-9-24T08:37:59Z
2022-09-24T06:39:09Z,42.805,6.029,13.3021,4.60092,2470.624,2022-9-24T08:41:02Z
2022-09-24T06:42:12Z,42.805,6.029,13.3057,4.60092,2470.661,2022-9-24T08:44:05Z
2022-09-24T06:45:15Z,42.805,6.029,13.3026,4.60092,2470.646,2022-9-24T08:47:08Z
2022-09-24T06:48:18Z,42.805,6.029,13.3052,4.60088,2470.646,2022-9-24T08:50:12Z
2022-09-24T06:51:21Z,42.805,6.029,13.3023,4.60099,2470.684,2022-9-24T08:53:15Z
2022-09-24T06:54:25Z,42.805,6.029,13.3012,4.60094,2470.646,2022-9-24T08:56:18Z
2022-09-24T06:57:28Z,42.805,6.029,13.3012,4.60078,2470.67,2022-9-24T08:59:21Z
2022-09-24T07:00:31Z,42.805,6.029,13.3009,4.60074,2470.646,2022-9-24T09:02:24Z
2022-09-24T07:03:34Z,42.805,6.029,13.3006,4.60079,2470.661,2022-9-24T09:05:27Z
2022-09-24T07:06:37Z,42.805,6.029,13.3008,4.60069,2470.684,2022-9-24T09:08:30Z
2022-09-24T07:09:40Z,42.805,6.029,13.3011,4.60099,2470.67,2022-9-24T09:11:33Z
2022-09-24T07:12:43Z,42.805,6.029,13.3006,4.60076,2470.661,2022-9-24T09:14:36Z
2022-09-24T07:15:46Z,42.805,6.029,13.3009,4.60069,2470.646,2022-9-24T09:17:40Z
2022-09-24T07:18:50Z,42.805,6.029,13.3004,4.60066,2470.624,2022-9-24T09:20:43Z
2022-09-24T07:21:53Z,42.805,6.029,13.3004,4.60074,2470.646,2022-9-24T09:23:46Z
2022-09-24T07:24:56Z,42.805,6.029,13.3008,4.60074,2470.646,2022-9-24T09:26:49Z
2022-09-24T07:27:59Z,42.805,6.029,13.3010,4.60070,2470.661,2022-9-24T09:29:52Z
2022-09-24T07:31:02Z,42.805,6.029,13.3009,4.60074,2470.661,2022-9-24T09:32:55Z
2022-09-24T07:34:05Z,42.805,6.029,13.3006,4.60069,2470.67,2022-9-24T09:35:58Z
2022-09-24T07:37:08Z,42.805,6.029,13.3006,4.60069,2470.646,2022-9-24T09:39:01Z
2022-09-24T07:40:11Z,42.805,6.029,13.3004,4.60069,2470.67,2022-9-24T09:42:05Z
2022-09-24T07:43:14Z,42.805,6.029,13.3008,4.60069,2470.646,2022-9-24T09:45:08Z
2022-09-24T07:46:18Z,42.805,6.029,13.3008,4.60062,2470.684,2022-9-24T09:48:11Z
2022-09-24T07:49:21Z,42.805,6.029,13.3006,4.60069,2470.637,2022-9-24T09:51:14Z
2022-09-24T07:52:24Z,42.805,6.029,13.3009,4.60071,2470.646,2022-9-24T09:54:17Z
2022-09-24T07:55:27Z,42.805,6.029,13.3007,4.60073,2470.624,2022-9-24T09:57:20Z
2022-09-24T07:58:30Z,42.805,6.029,13.3009,4.60073,2470.637,2022-9-24T10:00:23Z
2022-09-24T08:01:33Z,42.805,6.029,13.3008,4.60071,2470.637,2022-9-24T10:03:26Z
2022-09-24T08:04:36Z,42.805,6.029,13.3009,4.60077,2470.646,2022-9-24T10:06:30Z
2022-09-24T08:07:39Z,42.805,6.029,13.3010,4.60084,2470.646,2022-9-24T10:09:33Z
2022-09-24T08:10:43Z,42.805,6.029,13.3011,4.60061,2470.637,2022-9-24T10:12:36Z
2022-09-24T08:13:46Z,42.805,6.029,13.3012,4.60059,2470.614,2022-9-24T10:15:39Z
2022-09-24T08:16:49Z,42.805,6.029,13.3005,4.60081,2470.637,2022-9-24T10:18:42Z
2022-09-24T08:19:52Z,42.805,6.029,13.3015,4.60114,2470.624,2022-9-24T10:21:45Z
2022-09-24T08:22:55Z,42.805,6.029,13.3010,4.60106,2470.624,2022-9-24T10:24:48Z
2022-09-24T08:25:58Z,42.805,6.029,13.3013,4.60115,2470.637,2022-9-24T10:27:51Z
2022-09-24T08:29:01Z,42.805,6.029,13.3011,4.60160,2470.661,2022-9-24T10:30:55Z
2022-09-24T08:32:04Z,42.805,6.029,13.3021,4.60127,2470.614,2022-9-24T10:33:58Z
2022-09-24T08:35:08Z,42.805,6.029,13.3026,4.60091,2470.646,2022-9-24T10:37:01Z
2022-09-24T08:38:11Z,42.805,6.029,13.3034,4.60092,2470.637,2022-9-24T10:40:04Z
2022-09-24T08:41:14Z,42.805,6.029,13.3018,4.60087,2470.624,2022-9-24T10:43:07Z
2022-09-24T08:44:17Z,42.805,6.029,13.3014,4.60084,2470.624,2022-9-24T10:46:10Z
2022-09-24T08:47:20Z,42.805,6.029,13.3015,4.60057,2470.6,2022-9-24T10:49:13Z
2022-09-24T08:50:23Z,42.805,6.029,13.3016,4.60076,2470.637,2022-9-24T10:52:16Z
2022-09-24T08:53:26Z,42.805,6.029,13.3012,4.60070,2470.6,2022-9-24T10:55:20Z
2022-09-24T08:56:29Z,42.805,6.029,13.3009,4.60070,2470.624,2022-9-24T10:58:23Z
2022-09-24T08:59:33Z,42.805,6.029,13.3019,4.60059,2470.661,2022-9-24T11:01:26Z
2022-09-24T09:02:36Z,42.805,6.029,13.3018,4.60058,2470.6,2022-9-24T11:04:29Z
2022-09-24T09:05:39Z,42.805,6.029,13.3006,4.60062,2470.614,2022-9-24T11:07:32Z
2022-09-24T09:08:42Z,42.805,6.029,13.3013,4.60092,2470.591,2022-9-24T11:10:35Z
2022-09-24T09:11:45Z,42.805,6.029,13.3011,4.60083,2470.624,2022-9-24T11:13:38Z
2022-09-24T09:14:48Z,42.805,6.029,13.3102,4.60115,2470.614,2022-9-24T11:16:41Z
2022-09-24T09:17:51Z,42.805,6.029,13.3014,4.60069,2470.6,2022-9-24T11:19:45Z
2022-09-24T09:20:55Z,42.805,6.029,13.3011,4.60073,2470.637,2022-9-24T11:22:48Z
2022-09-24T09:23:58Z,42.805,6.029,13.3011,4.60105,2470.614,2022-9-24T11:25:51Z
2022-09-24T09:27:01Z,42.805,6.029,13.3085,4.60069,2470.614,2022-9-24T11:28:54Z
2022-09-24T09:30:04Z,42.805,6.029,13.3020,4.60081,2470.614,2022-9-24T11:31:57Z
2022-09-24T09:33:07Z,42.805,6.029,13.3057,4.60119,2470.614,2022-9-24T11:35:00Z
2022-09-24T09:36:10Z,42.805,6.029,13.3009,4.60075,2470.591,2022-9-24T11:38:03Z
2022-09-24T09:39:13Z,42.805,6.029,13.3008,4.60092,2470.6,2022-9-24T11:41:06Z
2022-09-24T09:42:16Z,42.805,6.029,13.3014,4.60076,2470.6,2022-9-24T11:44:10Z
2022-09-24T09:45:19Z,42.805,6.029,13.3018,4.60092,2470.553,2022-9-24T11:47:13Z
2022-09-24T09:48:23Z,42.805,6.029,13.3018,4.60064,2470.624,2022-9-24T11:50:16Z
2022-09-24T09:51:26Z,42.805,6.029,13.3021,4.60072,2470.614,2022-9-24T11:53:19Z
2022-09-24T09:54:29Z,42.805,6.029,13.3016,4.60077,2470.591,2022-9-24T11:56:22Z
2022-09-24T09:57:32Z,42.805,6.029,13.3031,4.60067,2470.567,2022-9-24T11:59:25Z
2022-09-24T10:00:35Z,42.805,6.029,13.3034,4.60069,2470.591,2022-9-24T12:02:28Z
2022-09-24T10:03:38Z,42.805,6.029,13.3054,4.60082,2470.591,2022-9-24T12:05:31Z
2022-09-24T10:06:41Z,42.805,6.029,13.3043,4.60081,2470.591,2022-9-24T12:08:35Z
2022-09-24T10:09:44Z,42.805,6.029,13.3031,4.60087,2470.567,2022-9-24T12:11:38Z
2022-09-24T10:12:48Z,42.805,6.029,13.3044,4.60064,2470.567,2022-9-24T12:14:41Z
2022-09-24T10:15:51Z,42.805,6.029,13.3044,4.60073,2470.53,2022-9-24T12:17:44Z
2022-09-24T10:18:54Z,42.805,6.029,13.3038,4.60134,2470.614,2022-9-24T12:20:47Z
2022-09-24T10:21:57Z,42.805,6.029,13.3056,4.60062,2470.614,2022-9-24T12:23:50Z
2022-09-24T10:25:00Z,42.805,6.029,13.3043,4.60064,2470.614,2022-9-24T12:26:53Z
2022-09-24T10:28:03Z,42.805,6.029,13.3048,4.60083,2470.591,2022-9-24T12:29:56Z
2022-09-24T10:31:06Z,42.805,6.029,13.3051,4.60137,2470.553,2022-9-24T12:33:00Z
2022-09-24T10:34:10Z,42.805,6.029,13.3062,4.60091,2470.567,2022-9-24T12:36:03Z
2022-09-24T10:37:13Z,42.805,6.029,13.3058,4.60119,2470.553,2022-9-24T12:39:06Z
2022-09-24T10:40:16Z,42.805,6.029,13.3069,4.60138,2470.577,2022-9-24T12:42:09Z
2022-09-24T10:43:19Z,42.805,6.029,13.3051,4.60131,2470.553,2022-9-24T12:45:12Z
2022-09-24T10:46:22Z,42.805,6.029,13.3073,4.60085,2470.553,2022-9-24T12:48:15Z
2022-09-24T10:49:25Z,42.805,6.029,13.3060,4.60140,2470.544,2022-9-24T12:51:18Z
2022-09-24T10:52:28Z,42.805,6.029,13.3073,4.60142,2470.567,2022-9-24T12:54:21Z
2022-09-24T10:55:31Z,42.805,6.029,13.3052,4.60104,2470.553,2022-9-24T12:57:25Z
2022-09-24T10:58:34Z,42.805,6.029,13.3064,4.60109,2470.544,2022-9-24T13:00:28Z
2022-09-24T11:01:38Z,42.805,6.029,13.3071,4.60139,2470.52,2022-9-24T13:03:31Z
2022-09-24T11:04:41Z,42.805,6.029,13.3062,4.60116,2470.553,2022-9-24T13:06:34Z
2022-09-24T11:07:44Z,42.805,6.029,13.3053,4.60093,2470.553,2022-9-24T13:09:37Z
2022-09-24T11:10:47Z,42.805,6.029,13.3031,4.60144,2470.507,2022-9-24T13:12:40Z
2022-09-24T11:13:50Z,42.805,6.029,13.3048,4.60145,2470.53,2022-9-24T13:15:43Z
2022-09-24T11:16:53Z,42.805,6.029,13.3066,4.60112,2470.553,2022-9-24T13:18:46Z
2022-09-24T11:19:56Z,42.805,6.029,13.3043,4.60122,2470.544,2022-9-24T13:21:50Z
2022-09-24T11:23:00Z,42.805,6.029,13.3064,4.60129,2470.544,2022-9-24T13:24:53Z
2022-09-24T11:26:03Z,42.805,6.029,13.3046,4.60155,2470.544,2022-9-24T13:27:56Z
2022-09-24T11:29:06Z,42.805,6.029,13.3041,4.60110,2470.553,2022-9-24T13:30:59Z
2022-09-24T11:32:09Z,42.805,6.029,13.3042,4.60132,2470.53,2022-9-24T13:34:02Z
2022-09-24T11:35:12Z,42.805,6.029,13.3062,4.60115,2470.567,2022-9-24T13:37:05Z
2022-09-24T11:38:15Z,42.805,6.029,13.3025,4.60113,2470.53,2022-9-24T13:40:08Z
2022-09-24T11:41:18Z,42.805,6.029,13.3035,4.60145,2470.553,2022-9-24T13:43:11Z
2022-09-24T11:44:21Z,42.805,6.029,13.3043,4.60101,2470.544,2022-9-24T13:46:15Z
2022-09-24T11:47:25Z,42.805,6.029,13.3030,4.60109,2470.53,2022-9-24T13:49:18Z
2022-09-24T11:50:28Z,42.805,6.029,13.3034,4.60129,2470.52,2022-9-24T13:52:21Z
2022-09-24T11:53:31Z,42.805,6.029,13.3053,4.60128,2470.544,2022-9-24T13:55:24Z
2022-09-24T11:56:34Z,42.805,6.029,13.3043,4.60111,2470.53,2022-9-24T13:58:27Z
2022-09-24T11:59:37Z,42.805,6.029,13.3030,4.60125,2470.567,2022-9-24T14:01:30Z
2022-09-24T12:02:40Z,42.805,6.029,13.3033,4.60097,2470.497,2022-9-24T14:04:33Z
2022-09-24T12:05:43Z,42.805,6.029,13.3029,4.60112,2470.53,2022-9-24T14:07:36Z
2022-09-24T12:08:46Z,42.805,6.029,13.3036,4.60128,2470.544,2022-9-24T14:10:40Z
2022-09-24T12:11:50Z,42.805,6.029,13.3039,4.60102,2470.507,2022-9-24T14:13:43Z
2022-09-24T12:14:53Z,42.805,6.029,13.3024,4.60125,2470.53,2022-9-24T14:16:46Z
2022-09-24T12:17:56Z,42.805,6.029,13.3036,4.60122,2470.553,2022-9-24T14:19:49Z
2022-09-24T12:20:59Z,42.805,6.029,13.3024,4.60150,2470.53,2022-9-24T14:22:52Z
2022-09-24T12:24:02Z,42.805,6.029,13.3037,4.60165,2470.53,2022-9-24T14:25:55Z
2022-09-24T12:27:05Z,42.805,6.029,13.3031,4.60138,2470.507,2022-9-24T14:28:58Z
2022-09-24T12:30:08Z,42.805,6.029,13.3028,4.60133,2470.52,2022-9-24T14:32:01Z
2022-09-24T12:33:11Z,42.805,6.029,13.3024,4.60144,2470.52,2022-9-24T14:35:05Z
2022-09-24T12:36:15Z,42.805,6.029,13.3021,4.60131,2470.53,2022-9-24T14:38:08Z
2022-09-24T12:39:18Z,42.805,6.029,13.3024,4.60117,2470.53,2022-9-24T14:41:11Z
2022-09-24T12:42:21Z,42.805,6.029,13.3022,4.60152,2470.507,2022-9-24T14:44:14Z
2022-09-24T12:45:24Z,42.805,6.029,13.3031,4.60164,2470.507,2022-9-24T14:47:17Z
2022-09-24T12:48:27Z,42.805,6.029,13.3027,4.60151,2470.544,2022-9-24T14:50:20Z
2022-09-24T12:51:30Z,42.805,6.029,13.3037,4.60122,2470.534,2022-9-24T14:53:23Z
2022-09-24T12:54:33Z,42.805,6.029,13.3031,4.60127,2470.497,2022-9-24T14:56:27Z
2022-09-24T12:57:36Z,42.805,6.029,13.3034,4.60132,2470.507,2022-9-24T14:59:30Z
2022-09-24T13:00:40Z,42.805,6.029,13.3043,4.60150,2470.52,2022-9-24T15:02:33Z
2022-09-24T13:03:43Z,42.805,6.029,13.3026,4.60117,2470.544,2022-9-24T15:05:36Z
2022-09-24T13:06:46Z,42.805,6.029,13.3018,4.60101,2470.52,2022-9-24T15:08:39Z
2022-09-24T13:09:49Z,42.805,6.029,13.3023,4.60103,2470.53,2022-9-24T15:11:42Z
2022-09-24T13:12:52Z,42.805,6.029,13.3023,4.60126,2470.544,2022-9-24T15:14:45Z
2022-09-24T13:15:55Z,42.805,6.029,13.3033,4.60137,2470.507,2022-9-24T15:17:48Z
2022-09-24T13:18:58Z,42.805,6.029,13.3041,4.60131,2470.52,2022-9-24T15:20:52Z
2022-09-24T13:22:01Z,42.805,6.029,13.3039,4.60108,2470.507,2022-9-24T15:23:55Z
2022-09-24T13:25:05Z,42.805,6.029,13.3046,4.60141,2470.53,2022-9-24T15:26:58Z
2022-09-24T13:28:08Z,42.805,6.029,13.3031,4.60155,2470.507,2022-9-24T15:30:01Z
2022-09-24T13:31:11Z,42.805,6.029,13.3029,4.60123,2470.553,2022-9-24T15:33:04Z
2022-09-24T13:34:14Z,42.805,6.029,13.3053,4.60137,2470.53,2022-9-24T15:36:07Z
2022-09-24T13:37:17Z,42.805,6.029,13.3045,4.60097,2470.507,2022-9-24T15:39:10Z
2022-09-24T13:40:20Z,42.805,6.029,13.3062,4.60127,2470.544,2022-9-24T15:42:13Z
2022-09-24T13:43:23Z,42.805,6.029,13.3055,4.60135,2470.544,2022-9-24T15:45:17Z
2022-09-24T13:46:26Z,42.805,6.029,13.3072,4.60123,2470.544,2022-9-24T15:48:20Z
2022-09-24T13:49:30Z,42.805,6.029,13.3072,4.60131,2470.52,2022-9-24T15:51:23Z
2022-09-24T13:52:33Z,42.805,6.029,13.3042,4.60087,2470.544,2022-9-24T15:54:26Z
2022-09-24T13:55:36Z,42.805,6.029,13.3058,4.60118,2470.553,2022-9-24T15:57:29Z
2022-09-24T13:58:39Z,42.805,6.029,13.3058,4.60099,2470.553,2022-9-24T16:00:32Z
2022-09-24T14:01:42Z,42.805,6.029,13.3039,4.60122,2470.53,2022-9-24T16:03:35Z
2022-09-24T14:04:45Z,42.805,6.029,13.3049,4.60092,2470.507,2022-9-24T16:06:38Z
2022-09-24T14:07:48Z,42.805,6.029,13.3063,4.60129,2470.577,2022-9-24T16:09:42Z
2022-09-24T14:10:51Z,42.805,6.029,13.3075,4.60138,2470.553,2022-9-24T16:12:45Z
2022-09-24T14:13:55Z,42.805,6.029,13.3075,4.60145,2470.591,2022-9-24T16:15:48Z
2022-09-24T14:16:58Z,42.805,6.029,13.3054,4.60160,2470.553,2022-9-24T16:18:51Z
2022-09-24T14:20:01Z,42.805,6.029,13.3062,4.60152,2470.577,2022-9-24T16:21:54Z
2022-09-24T14:23:04Z,42.805,6.029,13.3086,4.60121,2470.567,2022-9-24T16:24:57Z
2022-09-24T14:26:07Z,42.805,6.029,13.3086,4.60123,2470.553,2022-9-24T16:28:00Z
2022-09-24T14:29:10Z,42.805,6.029,13.3084,4.60132,2470.53,2022-9-24T16:31:03Z
2022-09-24T14:32:13Z,42.805,6.029,13.3080,4.60083,2470.567,2022-9-24T16:34:07Z
2022-09-24T14:35:16Z,42.805,6.029,13.3069,4.60157,2470.567,2022-9-24T16:37:10Z
2022-09-24T14:38:20Z,42.805,6.029,13.3070,4.60112,2470.577,2022-9-24T16:40:13Z
2022-09-24T14:41:23Z,42.805,6.029,13.3087,4.60107,2470.567,2022-9-24T16:43:16Z
2022-09-24T14:44:26Z,42.805,6.029,13.3077,4.60115,2470.591,2022-9-24T16:46:19Z
2022-09-24T14:47:29Z,42.805,6.029,13.3077,4.60125,2470.591,2022-9-24T16:49:22Z
2022-09-24T14:50:32Z,42.805,6.029,13.3062,4.60118,2470.577,2022-9-24T16:52:25Z
2022-09-24T14:53:35Z,42.805,6.029,13.3066,4.60076,2470.614,2022-9-24T16:55:28Z
2022-09-24T14:56:38Z,42.805,6.029,13.3056,4.60111,2470.591,2022-9-24T16:58:32Z
2022-09-24T14:59:41Z,42.805,6.029,13.3052,4.60114,2470.591,2022-9-24T17:01:35Z
2022-09-24T15:02:45Z,42.805,6.029,13.3058,4.60110,2470.614,2022-9-24T17:04:38Z
2022-09-24T15:05:48Z,42.805,6.029,13.3035,4.60146,2470.614,2022-9-24T17:07:41Z
2022-09-24T15:08:51Z,42.805,6.029,13.3047,4.60161,2470.614,2022-9-24T17:10:44Z
2022-09-24T15:11:54Z,42.805,6.029,13.3057,4.60187,2470.591,2022-9-24T17:13:47Z
2022-09-24T15:14:57Z,42.805,6.029,13.3070,4.60125,2470.591,2022-9-24T17:16:50Z